| time (UTC) | temp F | wind direction | speed knots | gust knots | rain 1hr in | rain 24hr in | rain mn in | humidity % | barometer mb |
| 20260507145015 | 56 | 248 | 8.7 | 13.0 | 0.00 | 0.00 | 0.00 | 63 | 1012.6 |
| 20260507144015 | 56 | 248 | 8.7 | 17.4 | 0.00 | 0.00 | 0.00 | 65 | 1012.6 |
| 20260507143015 | 55 | 248 | 8.7 | 14.8 | 0.00 | 0.00 | 0.00 | 66 | 1012.8 |
| 20260507142017 | 54 | 248 | 8.7 | 13.0 | 0.00 | 0.00 | 0.00 | 67 | 1012.9 |
| 20260507141017 | 53 | 248 | 9.6 | 13.9 | 0.00 | 0.00 | 0.00 | 68 | 1013.0 |
| 20260507140017 | 52 | 248 | 8.7 | 16.5 | 0.00 | 0.00 | 0.00 | 71 | 1013.1 |
| 20260507135017 | 52 | 248 | 7.8 | 13.0 | 0.00 | 0.00 | 0.00 | 71 | 1013.1 |
| 20260507134017 | 51 | 248 | 8.7 | 13.0 | 0.00 | 0.00 | 0.00 | 73 | 1013.3 |
| 20260507133017 | 50 | 248 | 8.7 | 13.9 | 0.00 | 0.00 | 0.00 | 74 | 1013.3 |
| 20260507132015 | 50 | 248 | 8.7 | 13.0 | 0.00 | 0.00 | 0.00 | 75 | 1013.5 |
| 20260507131017 | 49 | 248 | 9.6 | 13.0 | 0.00 | 0.00 | 0.00 | 76 | 1013.6 |
| 20260507130017 | 48 | 248 | 8.7 | 14.8 | 0.00 | 0.00 | 0.00 | 77 | 1013.6 |
| 20260507125017 | 47 | 248 | 8.7 | 13.0 | 0.00 | 0.00 | 0.00 | 78 | 1013.3 |
| 20260507124017 | 47 | 248 | 8.7 | 13.9 | 0.00 | 0.00 | 0.00 | 80 | 1013.3 |
| 20260507123017 | 46 | 248 | 8.7 | 11.3 | 0.00 | 0.00 | 0.00 | 81 | 1013.3 |
| 20260507122017 | 45 | 248 | 7.0 | 10.4 | 0.00 | 0.00 | 0.00 | 82 | 1013.2 |
| 20260507121017 | 44 | 270 | 7.0 | 10.4 | 0.00 | 0.00 | 0.00 | 84 | 1013.3 |
| 20260507120017 | 44 | 248 | 7.0 | 13.0 | 0.00 | 0.00 | 0.00 | 85 | 1013.3 |
| 20260507115017 | 44 | 248 | 6.1 | 10.4 | 0.00 | 0.00 | 0.00 | 85 | 1013.3 |
| 20260507114017 | 44 | 248 | 6.1 | 11.3 | 0.00 | 0.00 | 0.00 | 85 | 1013.5 |
| 20260507113017 | 44 | 248 | 7.0 | 11.3 | 0.00 | 0.00 | 0.00 | 85 | 1013.5 |
| 20260507112017 | 44 | 248 | 7.8 | 12.2 | 0.00 | 0.00 | 0.00 | 85 | 1013.6 |
| 20260507111017 | 44 | 248 | 7.0 | 11.3 | 0.00 | 0.00 | 0.00 | 85 | 1013.5 |
| 20260507110017 | 44 | 248 | 7.0 | 12.2 | 0.00 | 0.00 | 0.00 | 85 | 1013.6 |
| 20260507105017 | 44 | 248 | 7.0 | 10.4 | 0.00 | 0.00 | 0.00 | 85 | 1013.6 |
| 20260507104017 | 44 | 248 | 6.1 | 9.6 | 0.00 | 0.00 | 0.00 | 85 | 1013.5 |
| 20260507103017 | 44 | 248 | 7.0 | 11.3 | 0.00 | 0.00 | 0.00 | 85 | 1013.5 |
| 20260507102017 | 44 | 248 | 7.8 | 11.3 | 0.00 | 0.00 | 0.00 | 85 | 1013.7 |
| 20260507101016 | 44 | 248 | 7.8 | 11.3 | 0.00 | 0.00 | 0.00 | 85 | 1014.0 |
| 20260507100016 | 44 | 248 | 7.0 | 11.3 | 0.00 | 0.00 | 0.00 | 86 | 1014.0 |
| 20260507095017 | 44 | 248 | 7.0 | 10.4 | 0.00 | 0.00 | 0.00 | 86 | 1014.1 |
| 20260507094017 | 44 | 248 | 7.0 | 9.6 | 0.00 | 0.00 | 0.00 | 86 | 1014.2 |
| 20260507093017 | 43 | 248 | 5.2 | 8.7 | 0.00 | 0.00 | 0.00 | 86 | 1014.2 |
| 20260507092017 | 44 | 248 | 5.2 | 8.7 | 0.00 | 0.00 | 0.00 | 86 | 1014.4 |
| 20260507091016 | 44 | 248 | 5.2 | 9.6 | 0.00 | 0.00 | 0.00 | 85 | 1014.3 |
| 20260507090016 | 44 | 248 | 5.2 | 8.7 | 0.00 | 0.00 | 0.00 | 85 | 1014.4 |
| 20260507085016 | 44 | 248 | 5.2 | 7.8 | 0.00 | 0.00 | 0.00 | 83 | 1014.3 |
| 20260507084016 | 44 | 248 | 5.2 | 9.6 | 0.00 | 0.00 | 0.00 | 82 | 1014.4 |
| 20260507083016 | 45 | 248 | 5.2 | 7.8 | 0.00 | 0.00 | 0.00 | 82 | 1014.6 |
| 20260507082017 | 45 | 248 | 6.1 | 8.7 | 0.00 | 0.00 | 0.00 | 81 | 1014.7 |
| 20260507081016 | 45 | 248 | 5.2 | 7.8 | 0.00 | 0.00 | 0.00 | 81 | 1014.6 |
| 20260507080016 | 45 | 248 | 5.2 | 8.7 | 0.00 | 0.00 | 0.00 | 80 | 1014.7 |
| 20260507075016 | 45 | 248 | 5.2 | 7.8 | 0.00 | 0.00 | 0.00 | 80 | 1014.8 |
| 20260507074016 | 45 | 248 | 5.2 | 8.7 | 0.00 | 0.00 | 0.00 | 81 | 1014.9 |
| 20260507073016 | 45 | 270 | 4.3 | 7.0 | 0.00 | 0.00 | 0.00 | 81 | 1014.8 |
| 20260507072016 | 44 | 248 | 4.3 | 7.0 | 0.00 | 0.00 | 0.00 | 81 | 1015.0 |
| 20260507071016 | 44 | 248 | 3.5 | 5.2 | 0.00 | 0.00 | 0.00 | 80 | 1015.0 |
| 20260507070016 | 44 | 248 | 3.5 | 4.3 | 0.00 | 0.00 | 0.00 | 79 | 1015.1 |
| 20260507065016 | 45 | 248 | 3.5 | 4.3 | 0.00 | 0.00 | 0.00 | 77 | 1015.4 |
| 20260507064016 | 46 | 248 | 4.3 | 7.0 | 0.00 | 0.00 | 0.00 | 76 | 1015.5 |
| 20260507063016 | 46 | 248 | 3.5 | 6.1 | 0.00 | 0.00 | 0.00 | 76 | 1015.6 |
| 20260507062016 | 46 | 248 | 4.3 | 7.0 | 0.00 | 0.00 | 0.00 | 75 | 1015.6 |
| 20260507061016 | 45 | 248 | 4.3 | 7.0 | 0.00 | 0.00 | 0.00 | 75 | 1015.6 |
| 20260507060016 | 46 | 248 | 4.3 | 6.1 | 0.00 | 0.00 | 0.00 | 73 | 1015.8 |
| 20260507055016 | 46 | 248 | 3.5 | 6.1 | 0.00 | 0.00 | 0.00 | 73 | 1015.8 |
| 20260507054016 | 46 | 248 | 3.5 | 6.1 | 0.00 | 0.00 | 0.00 | 72 | 1015.9 |
| 20260507053016 | 46 | 248 | 4.3 | 6.1 | 0.00 | 0.00 | 0.00 | 71 | 1016.0 |
| 20260507052016 | 46 | 248 | 4.3 | 7.0 | 0.00 | 0.00 | 0.00 | 71 | 1015.9 |
| 20260507051016 | 46 | 248 | 3.5 | 6.1 | 0.00 | 0.00 | 0.00 | 70 | 1015.9 |
| 20260507050016 | 46 | 248 | 4.3 | 6.1 | 0.00 | 0.00 | 0.00 | 69 | 1015.8 |
| 20260507045015 | 47 | 248 | 3.5 | 5.2 | 0.00 | 0.00 | 0.00 | 68 | 1016.0 |
| 20260507044015 | 46 | 248 | 2.6 | 4.3 | 0.00 | 0.00 | 0.00 | 67 | 1015.9 |
| 20260507043015 | 47 | 248 | 2.6 | 4.3 | 0.00 | 0.00 | 0.00 | 66 | 1016.0 |
| 20260507042015 | 48 | 248 | 3.5 | 4.3 | 0.00 | 0.00 | 0.00 | 64 | 1016.0 |
| 20260507041015 | 48 | 248 | 3.5 | 4.3 | 0.00 | 0.00 | 0.00 | 63 | 1016.0 |
| 20260507040015 | 49 | 248 | 3.5 | 4.3 | 0.00 | 0.00 | 0.00 | 61 | 1016.0 |
| 20260507035015 | 49 | 248 | 3.5 | 4.3 | 0.00 | 0.00 | 0.00 | 59 | 1016.0 |
| 20260507034015 | 50 | 248 | 2.6 | 6.1 | 0.00 | 0.00 | 0.00 | 58 | 1015.9 |
| 20260507033015 | 50 | 248 | 3.5 | 6.1 | 0.00 | 0.00 | 0.00 | 55 | 1016.0 |
| 20260507032017 | 50 | 248 | 2.6 | 4.3 | 0.00 | 0.00 | 0.00 | 53 | 1015.9 |
| 20260507031017 | 51 | 270 | 2.6 | 5.2 | 0.00 | 0.00 | 0.00 | 52 | 1015.9 |
| 20260507030017 | 51 | 270 | 3.5 | 6.1 | 0.00 | 0.00 | 0.00 | 51 | 1015.9 |
| 20260507025017 | 50 | 248 | 2.6 | 6.1 | 0.00 | 0.00 | 0.00 | 52 | 1015.9 |
| 20260507024017 | 50 | 270 | 2.6 | 3.5 | 0.00 | 0.00 | 0.00 | 52 | 1015.7 |
| 20260507023017 | 50 | 270 | 1.7 | 2.6 | 0.00 | 0.00 | 0.00 | 51 | 1015.5 |
| 20260507022017 | 50 | 270 | 1.7 | 2.6 | 0.00 | 0.00 | 0.00 | 53 | 1015.5 |
| 20260507021017 | 51 | 270 | 2.6 | 2.6 | 0.00 | 0.00 | 0.00 | 48 | 1015.4 |
| 20260507020017 | 51 | 270 | 1.7 | 2.6 | 0.00 | 0.00 | 0.00 | 47 | 1015.2 |
| 20260507015017 | 51 | 270 | 1.7 | 2.6 | 0.00 | 0.00 | 0.00 | 51 | 1015.1 |
| 20260507014017 | 52 | 270 | 1.7 | 2.6 | 0.00 | 0.00 | 0.00 | 47 | 1015.1 |
| 20260507013017 | 53 | 293 | 2.6 | 3.5 | 0.00 | 0.00 | 0.00 | 45 | 1015.1 |
| 20260507012017 | 54 | 293 | 0.9 | 1.7 | 0.00 | 0.00 | 0.00 | 45 | 1015.1 |
| 20260507011017 | 55 | 293 | 1.7 | 2.6 | 0.00 | 0.00 | 0.00 | 40 | 1015.1 |
| 20260507010017 | 58 | 0.0 | 0.9 | 0.00 | 0.00 | 0.00 | 41 | 1015.3 | |
| 20260507005017 | 58 | 293 | 0.9 | 1.7 | 0.00 | 0.00 | 0.00 | 33 | 1015.3 |
| 20260507004017 | 59 | 293 | 0.9 | 1.7 | 0.00 | 0.00 | 0.00 | 33 | 1015.2 |
| 20260507003017 | 59 | 293 | 1.7 | 3.5 | 0.00 | 0.00 | 0.00 | 31 | 1015.4 |
| 20260507002017 | 60 | 315 | 2.6 | 5.2 | 0.00 | 0.00 | 0.00 | 31 | 1015.5 |
| 20260507001017 | 60 | 293 | 3.5 | 6.1 | 0.00 | 0.00 | 0.00 | 31 | 1015.4 |
| 20260507000017 | 61 | 315 | 3.5 | 7.0 | 0.00 | 0.00 | 0.00 | 29 | 1015.6 |
| 20260506235017 | 61 | 315 | 2.6 | 5.2 | 0.00 | 0.00 | 0.00 | 31 | 1015.6 |
| 20260506234017 | 60 | 270 | 6.1 | 10.4 | 0.00 | 0.00 | 0.00 | 32 | 1015.5 |
| 20260506233017 | 61 | 315 | 2.6 | 7.0 | 0.00 | 0.00 | 0.00 | 30 | 1015.7 |
| 20260506232017 | 61 | 293 | 3.5 | 7.8 | 0.00 | 0.00 | 0.00 | 32 | 1015.8 |
| 20260506231017 | 61 | 293 | 4.3 | 10.4 | 0.00 | 0.00 | 0.00 | 31 | 1015.8 |
| 20260506230017 | 59 | 293 | 2.6 | 7.0 | 0.00 | 0.00 | 0.00 | 35 | 1015.9 |
| 20260506225017 | 60 | 270 | 2.6 | 5.2 | 0.00 | 0.00 | 0.00 | 30 | 1015.9 |
| 20260506224017 | 61 | 315 | 3.5 | 7.8 | 0.00 | 0.00 | 0.00 | 30 | 1016.0 |
| 20260506223017 | 61 | 270 | 3.5 | 9.6 | 0.00 | 0.00 | 0.00 | 30 | 1016.0 |
| 20260506222016 | 60 | 293 | 2.6 | 7.0 | 0.00 | 0.00 | 0.00 | 33 | 1016.0 |
| 20260506221017 | 59 | 293 | 4.3 | 8.7 | 0.00 | 0.00 | 0.00 | 32 | 1016.1 |
| 20260506220016 | 60 | 293 | 7.0 | 12.2 | 0.00 | 0.00 | 0.00 | 29 | 1016.2 |
| 20260506215016 | 61 | 270 | 6.1 | 11.3 | 0.00 | 0.00 | 0.00 | 33 | 1016.3 |
| 20260506214009 | 62 | 315 | 4.3 | 10.4 | 0.00 | 0.00 | 0.00 | 31 | 1016.4 |
| 20260506213016 | 62 | 293 | 4.3 | 8.7 | 0.00 | 0.00 | 0.00 | 32 | 1016.7 |
| 20260506212016 | 62 | 270 | 3.5 | 9.6 | 0.00 | 0.00 | 0.00 | 33 | 1016.6 |
| 20260506211017 | 62 | 45 | 2.6 | 6.1 | 0.00 | 0.00 | 0.00 | 30 | 1017.0 |
| 20260506210016 | 62 | 315 | 3.5 | 7.8 | 0.00 | 0.00 | 0.00 | 29 | 1017.0 |
| 20260506205016 | 61 | 0 | 3.5 | 7.0 | 0.00 | 0.00 | 0.00 | 30 | 1017.3 |
| 20260506204016 | 60 | 293 | 3.5 | 8.7 | 0.00 | 0.00 | 0.00 | 31 | 1017.3 |
| 20260506203016 | 61 | 293 | 6.1 | 12.2 | 0.00 | 0.00 | 0.00 | 31 | 1017.5 |
| 20260506202016 | 59 | 270 | 0.9 | 4.3 | 0.00 | 0.00 | 0.00 | 34 | 1017.5 |
| 20260506201016 | 60 | 293 | 5.2 | 13.9 | 0.00 | 0.00 | 0.00 | 30 | 1017.8 |
| 20260506200016 | 59 | 293 | 4.3 | 10.4 | 0.00 | 0.00 | 0.00 | 31 | 1017.8 |
| 20260506195016 | 59 | 270 | 5.2 | 9.6 | 0.00 | 0.00 | 0.00 | 34 | 1018.0 |
| 20260506194016 | 58 | 293 | 6.1 | 12.2 | 0.00 | 0.00 | 0.00 | 34 | 1018.0 |
| 20260506193016 | 59 | 338 | 3.5 | 8.7 | 0.00 | 0.00 | 0.00 | 33 | 1018.1 |
| 20260506192016 | 58 | 270 | 2.6 | 7.0 | 0.00 | 0.00 | 0.00 | 34 | 1018.2 |
| 20260506191016 | 58 | 338 | 5.2 | 9.6 | 0.00 | 0.00 | 0.00 | 33 | 1018.1 |
| 20260506190016 | 58 | 338 | 3.5 | 7.8 | 0.00 | 0.00 | 0.00 | 32 | 1018.2 |
| 20260506185016 | 58 | 315 | 3.5 | 7.8 | 0.00 | 0.00 | 0.00 | 32 | 1018.3 |
| 20260506184016 | 57 | 293 | 3.5 | 12.2 | 0.00 | 0.00 | 0.00 | 35 | 1018.5 |
| 20260506183016 | 57 | 270 | 1.7 | 6.1 | 0.00 | 0.00 | 0.00 | 33 | 1018.3 |
| 20260506182016 | 57 | 315 | 3.5 | 8.7 | 0.00 | 0.00 | 0.00 | 32 | 1018.3 |
| 20260506181016 | 57 | 270 | 3.5 | 11.3 | 0.00 | 0.00 | 0.00 | 32 | 1018.3 |
| 20260506180016 | 58 | 270 | 2.6 | 6.1 | 0.00 | 0.00 | 0.00 | 35 | 1018.4 |
| 20260506175016 | 57 | 315 | 3.5 | 10.4 | 0.00 | 0.00 | 0.00 | 33 | 1018.6 |
| 20260506174016 | 56 | 68 | 1.7 | 5.2 | 0.00 | 0.00 | 0.00 | 35 | 1018.5 |
| 20260506173016 | 57 | 270 | 4.3 | 7.0 | 0.00 | 0.00 | 0.00 | 40 | 1018.7 |
| 20260506172016 | 56 | 293 | 1.7 | 7.0 | 0.00 | 0.00 | 0.00 | 38 | 1018.7 |
| 20260506171017 | 56 | 338 | 4.3 | 9.6 | 0.00 | 0.00 | 0.00 | 37 | 1018.9 |
| 20260506170016 | 56 | 68 | 2.6 | 8.7 | 0.00 | 0.00 | 0.00 | 36 | 1018.9 |
| 20260506165016 | 55 | 270 | 3.5 | 8.7 | 0.00 | 0.00 | 0.00 | 36 | 1018.9 |
| 20260506164016 | 55 | 293 | 4.3 | 9.6 | 0.00 | 0.00 | 0.00 | 36 | 1019.0 |
| 20260506163016 | 55 | 315 | 1.7 | 6.1 | 0.00 | 0.00 | 0.00 | 35 | 1019.1 |
| 20260506162016 | 55 | 45 | 3.5 | 7.0 | 0.00 | 0.00 | 0.00 | 41 | 1019.2 |
| 20260506161016 | 55 | 90 | 1.7 | 6.1 | 0.00 | 0.00 | 0.00 | 43 | 1019.1 |
| 20260506160016 | 54 | 45 | 2.6 | 7.8 | 0.00 | 0.00 | 0.00 | 39 | 1019.0 |
| 20260506155016 | 54 | 90 | 0.9 | 1.7 | 0.00 | 0.00 | 0.00 | 40 | 1019.0 |
| 20260506154016 | 53 | 68 | 0.9 | 2.6 | 0.00 | 0.00 | 0.00 | 46 | 1018.9 |
| 20260506153016 | 52 | 0.0 | 1.7 | 0.00 | 0.00 | 0.00 | 48 | 1019.0 | |
| 20260506152016 | 51 | 68 | 0.9 | 3.5 | 0.00 | 0.00 | 0.00 | 45 | 1018.9 |
| 20260506151016 | 51 | 68 | 0.9 | 2.6 | 0.00 | 0.00 | 0.00 | 48 | 1018.8 |
| 20260506150016 | 50 | 68 | 0.9 | 1.7 | 0.00 | 0.00 | 0.00 | 46 | 1018.7 |